Location: Northam
(31.6525°S, 116.6655°E)
Time: 18:24:25
(UTC+08:00)

X-37B - Visible Passes

Search period start: 17 January 2021 00:00
Search period end: 27 January 2021 00:00
Orbit: 384 x 390 km, 45.0° (Epoch: 02 January)

Date Brightness Start Highest point End Pass type
(mag) Time Alt. Az. Time Alt. Az. Time Alt. Az.
20 Jan 3.0 04:38:04 10° N 04:40:15 17° NE 04:42:28 10° E visible
22 Jan 1.6 04:18:11 22° NNW 04:19:45 38° NE 04:22:46 10° ESE visible
23 Jan 3.2 03:22:26 15° ENE 03:22:26 15° ENE 03:23:38 10° E visible
23 Jan 1.4 04:54:46 10° WNW 04:57:50 41° SSW 05:00:56 10° SE visible
24 Jan 0.5 03:58:54 64° NW 03:59:20 90° NNW 04:02:34 10° SE visible
25 Jan 3.4 03:03:02 17° ESE 03:03:02 17° ESE 03:03:56 10° ESE visible
25 Jan 2.4 04:35:18 12° WSW 04:37:37 23° SSW 04:40:17 10° SSE visible
26 Jan 1.7 03:39:23 39° S 03:39:23 39° S 03:42:06 10° SE visible
